Zurück zum Katalog

STARLINK-31433

AktivKommunikationVLEO
NORAD 59243·PAYLOAD·🇺🇸 United States

Gestartet Mar 16, 2024 von Cape Canaveral Space Force Station

Loading…

Nächste Überflüge (nächste 24 Stunden)

TLE

AktuellSource: CelesTrak SupGP

Epoche: Sep 14, 2026, 13:39 UTC

1 59243C 24049N   26257.56923611  .00035333  00000+0  12803-2 0  2576
2 59243  43.0016 156.7640 0001459 266.7626  95.7937 15.27546893    13

Verfolge STARLINK-31433 in Echtzeit mit AllMySat

Download on the App Store